Flag for Germany Weather past 2 weeks in Bühl, Baden-Württemberg, Germany

Now
75 °F

Clear.


Feels Like: 77 °F
Forecast: 66 / 83 °F
Wind: 2 mph from North

Location: Karlsruhe - Baden Wurttemberg

Current Time: Jul 5, 2015 at 2:12:30 AM

Latest Report: Jul 5, 2015 at 12:50 AM


Visibility: 10 mi

Pressure: 30.07 "Hg

Humidity: 74%

Dew point: 66 °F

Location of BühlLocation

Historic Weather in Bühl — Graph

°F

Bühl temperature yesterday

Maximum temperature yesterday: 100 °F (at 4:50 PM)
Minimum temperature yesterday: 66 °F (at 5:20 AM)
Average temperature yesterday: 86 °F

Past Weeks' High & Low Weather Summary

 TemperatureHumidityPressure
High100 °F (Jul 4, 4:50 PM)94% (Jun 21, 12:20 AM)30.21 "Hg (Jun 21, 12:20 AM)
Low48 °F (Jun 23, 6:20 AM)22% (Jul 4, 4:50 PM)29.74 "Hg (Jun 22, 7:50 PM)
Average70 °F60%30.09 "Hg
* Reported Jun 20 4:20 AM — Jul 5 12:50 AM, Bühl, Weather by CustomWeather, © 2015

Note: Actual official high and low records may vary slightly from our data, if they occured in-between our weather recording intervals... More about our weather records

Advertising

Bühl weather history for previous 24 hours

 ConditionsComfort  
Time TempWeatherWind HumidityBarometerVisibility
12:50 AM
Sun, Jul 5
75 °FClear.2 mph74%30.07 "Hg10 mi
12:20 AM79 °FClear.3 mph61%30.07 "Hg10 mi
11:50 PM
Sat, Jul 4
77 °FClear.2 mph69%30.07 "Hg10 mi
11:20 PM77 °FClear.No wind69%30.07 "Hg10 mi
10:50 PM79 °FClear.2 mph65%30.07 "Hg10 mi
10:20 PM82 °FSunny.2 mph58%30.07 "Hg10 mi
9:50 PM84 °FSunny.3 mph51%30.07 "Hg10 mi
9:20 PM86 °FSunny.2 mph46%30.07 "Hg10 mi
8:50 PM90 °FSunny.No wind41%30.07 "Hg10 mi
8:20 PM93 °FSunny.1 mph32%30.07 "Hg10 mi
7:50 PM97 °FSunny.1 mph28%30.07 "Hg10 mi
7:20 PM97 °FSunny.2 mph27%30.07 "Hg10 mi
6:50 PM97 °FSunny.2 mph28%30.07 "Hg10 mi
6:20 PM99 °FSunny.1 mph24%30.07 "Hg10 mi
5:50 PM99 °FSunny.2 mph24%30.07 "Hg10 mi
5:20 PM99 °FSunny.2 mph24%30.09 "Hg10 mi
4:50 PM100 °FPassing clouds.5 mph22%30.09 "HgN/A
4:20 PM99 °FPassing clouds.5 mph25%30.09 "HgN/A
3:50 PM99 °FPassing clouds.6 mph25%30.09 "HgN/A
3:20 PM97 °FPassing clouds.5 mph28%30.09 "HgN/A
2:50 PM97 °FPassing clouds.7 mph27%30.09 "HgN/A
2:20 PM97 °FPassing clouds.9 mph27%30.09 "HgN/A
1:50 PM97 °FPassing clouds.7 mph27%30.09 "HgN/A
1:20 PM95 °FPassing clouds.7 mph28%30.12 "HgN/A
12:50 PM93 °FSunny.9 mph32%30.12 "Hg10 mi
12:20 PM93 °FPassing clouds.8 mph32%30.12 "HgN/A
11:50 AM91 °FPassing clouds.8 mph34%30.12 "HgN/A
11:20 AM90 °FPassing clouds.8 mph38%30.12 "HgN/A
10:50 AM86 °FPassing clouds.5 mph46%30.12 "HgN/A
10:20 AM84 °FPassing clouds.6 mph48%30.12 "HgN/A
9:50 AM82 °FSunny.3 mph58%30.12 "Hg10 mi
9:20 AM79 °FSunny.3 mph65%30.12 "Hg10 mi
8:50 AM79 °FSunny.2 mph61%30.12 "Hg10 mi
8:20 AM77 °FSunny.1 mph65%30.12 "Hg10 mi
7:50 AM73 °FSunny.2 mph78%30.12 "Hg10 mi
7:20 AM72 °FSunny.2 mph83%30.12 "Hg10 mi
6:50 AM68 °FSunny.1 mph94%30.12 "Hg10 mi
6:20 AM68 °FClear.2 mph88%30.12 "Hg10 mi
5:50 AM68 °FClear.1 mph88%30.12 "Hg10 mi
5:20 AM66 °FClear.3 mph94%30.09 "Hg10 mi
4:50 AM68 °FClear.No wind94%30.09 "Hg10 mi
Weather by CustomWeather, © 2015

See weather overviewHow to use our weather pages